| time (UTC) | temp F | wind direction | speed MPH | gust MPH | rain 1hr in | rain 24hr in | rain mn in | humidity % | barometer mb |
| 20260906052012 | 70 | 139 | 0.0 | 2.0 | 0.00 | 0.00 | 0.00 | 40 | 1024.7 |
| 20260906051524 | 70 | 114 | 0.0 | 3.0 | 0.00 | 0.00 | 0.00 | 40 | 1024.7 |
| 20260906051013 | 70 | 103 | 1.0 | 3.0 | 0.00 | 0.00 | 0.00 | 39 | 1024.6 |
| 20260906050514 | 70 | 70 | 1.0 | 2.0 | 0.00 | 0.00 | 0.00 | 40 | 1024.7 |
| 20260906050027 | 69 | 111 | 1.0 | 3.0 | 0.00 | 0.00 | 0.00 | 40 | 1024.7 |
| 20260906045517 | 69 | 70 | 0.0 | 3.0 | 0.00 | 0.00 | 0.00 | 40 | 1024.7 |
| 20260906045018 | 69 | 108 | 0.0 | 4.0 | 0.00 | 0.00 | 0.00 | 41 | 1024.6 |
| 20260906044529 | 69 | 89 | 1.0 | 4.0 | 0.00 | 0.00 | 0.00 | 40 | 1024.6 |
| 20260906044018 | 68 | 96 | 1.0 | 4.0 | 0.00 | 0.00 | 0.00 | 40 | 1024.6 |
| 20260906043518 | 68 | 63 | 0.0 | 3.0 | 0.00 | 0.00 | 0.00 | 42 | 1024.6 |
| 20260906043031 | 68 | 98 | 1.0 | 3.0 | 0.00 | 0.00 | 0.00 | 42 | 1024.7 |
| 20260906042509 | 67 | 98 | 0.0 | 1.0 | 0.00 | 0.00 | 0.00 | 43 | 1024.9 |
| 20260906042009 | 67 | 117 | 0.0 | 1.0 | 0.00 | 0.00 | 0.00 | 43 | 1024.9 |
| 20260906041525 | 67 | 98 | 0.0 | 1.0 | 0.00 | 0.00 | 0.00 | 45 | 1025.0 |
| 20260906041010 | 67 | 86 | 0.0 | 1.0 | 0.00 | 0.00 | 0.00 | 45 | 1025.1 |
| 20260906040511 | 66 | 107 | 0.0 | 2.0 | 0.00 | 0.00 | 0.00 | 46 | 1025.0 |
| 20260906040024 | 66 | 108 | 0.0 | 2.0 | 0.00 | 0.00 | 0.00 | 46 | 1025.0 |
| 20260906035513 | 66 | 128 | 0.0 | 1.0 | 0.00 | 0.00 | 0.00 | 47 | 1025.0 |
| 20260906035014 | 66 | 131 | 0.0 | 1.0 | 0.00 | 0.00 | 0.00 | 47 | 1025.0 |
| 20260906034534 | 65 | 89 | 0.0 | 1.0 | 0.00 | 0.00 | 0.00 | 48 | 1025.0 |
| 20260906034014 | 65 | 92 | 0.0 | 1.0 | 0.00 | 0.00 | 0.00 | 51 | 1025.1 |
| 20260906033513 | 65 | 94 | 0.0 | 1.0 | 0.00 | 0.00 | 0.00 | 50 | 1025.0 |
| 20260906033035 | 65 | 96 | 0.0 | 1.0 | 0.00 | 0.00 | 0.00 | 49 | 1025.1 |
| 20260906032516 | 65 | 96 | 0.0 | 1.0 | 0.00 | 0.00 | 0.00 | 49 | 1025.1 |
| 20260906032016 | 66 | 96 | 0.0 | 1.0 | 0.00 | 0.00 | 0.00 | 48 | 1025.1 |
| 20260906031537 | 67 | 98 | 0.0 | 1.0 | 0.00 | 0.00 | 0.00 | 46 | 1025.1 |
| 20260906031015 | 67 | 103 | 0.0 | 1.0 | 0.00 | 0.00 | 0.00 | 46 | 1025.1 |
| 20260906030510 | 67 | 86 | 0.0 | 1.0 | 0.00 | 0.00 | 0.00 | 47 | 1025.1 |
| 20260906030024 | 68 | 84 | 0.0 | 1.0 | 0.00 | 0.00 | 0.00 | 46 | 1025.0 |
| 20260906025512 | 68 | 84 | 0.0 | 1.0 | 0.00 | 0.00 | 0.00 | 46 | 1025.0 |
| 20260906025014 | 68 | 84 | 0.0 | 1.0 | 0.00 | 0.00 | 0.00 | 47 | 1025.0 |
| 20260906024527 | 68 | 84 | 0.0 | 2.0 | 0.00 | 0.00 | 0.00 | 47 | 1025.0 |
| 20260906024014 | 68 | 95 | 0.0 | 2.0 | 0.00 | 0.00 | 0.00 | 47 | 1025.0 |
| 20260906023516 | 67 | 91 | 0.0 | 1.0 | 0.00 | 0.00 | 0.00 | 48 | 1025.0 |
| 20260906023029 | 67 | 91 | 0.0 | 1.0 | 0.00 | 0.00 | 0.00 | 47 | 1025.1 |
| 20260906022516 | 67 | 92 | 0.0 | 1.0 | 0.00 | 0.00 | 0.00 | 46 | 1025.0 |
| 20260906022016 | 67 | 119 | 0.0 | 1.0 | 0.00 | 0.00 | 0.00 | 46 | 1025.0 |
| 20260906021530 | 68 | 114 | 0.0 | 1.0 | 0.00 | 0.00 | 0.00 | 47 | 1025.0 |
| 20260906021016 | 68 | 121 | 0.0 | 1.0 | 0.00 | 0.00 | 0.00 | 46 | 1025.0 |
| 20260906020518 | 68 | 101 | 0.0 | 1.0 | 0.00 | 0.00 | 0.00 | 47 | 1025.0 |
| 20260906020034 | 67 | 91 | 0.0 | 2.0 | 0.00 | 0.00 | 0.00 | 48 | 1025.1 |
| 20260906015520 | 67 | 131 | 0.0 | 2.0 | 0.00 | 0.00 | 0.00 | 49 | 1025.1 |
| 20260906015015 | 67 | 103 | 0.0 | 1.0 | 0.00 | 0.00 | 0.00 | 48 | 1025.2 |
| 20260906014538 | 67 | 103 | 0.0 | 2.0 | 0.00 | 0.00 | 0.00 | 47 | 1025.2 |
| 20260906014012 | 67 | 117 | 0.0 | 2.0 | 0.00 | 0.00 | 0.00 | 47 | 1025.3 |
| 20260906013517 | 67 | 94 | 0.0 | 2.0 | 0.00 | 0.00 | 0.00 | 47 | 1025.3 |
| 20260906013029 | 67 | 110 | 0.0 | 2.0 | 0.00 | 0.00 | 0.00 | 48 | 1025.4 |
| 20260906012516 | 67 | 77 | 1.0 | 2.0 | 0.00 | 0.00 | 0.00 | 48 | 1025.4 |
| 20260906012016 | 67 | 112 | 0.0 | 1.0 | 0.00 | 0.00 | 0.00 | 48 | 1025.4 |
| 20260906011527 | 66 | 108 | 0.0 | 1.0 | 0.00 | 0.00 | 0.00 | 50 | 1025.5 |
| 20260906011017 | 66 | 155 | 0.0 | 1.0 | 0.00 | 0.00 | 0.00 | 51 | 1025.5 |
| 20260906010524 | 66 | 120 | 0.0 | 1.0 | 0.00 | 0.00 | 0.00 | 54 | 1025.5 |
| 20260906010056 | 65 | 93 | 0.0 | 1.0 | 0.00 | 0.00 | 0.00 | 55 | 1025.4 |
| 20260906005517 | 64 | 79 | 0.0 | 1.0 | 0.00 | 0.00 | 0.00 | 60 | 1025.4 |
| 20260906005019 | 64 | 68 | 0.0 | 1.0 | 0.00 | 0.00 | 0.00 | 64 | 1025.4 |
| 20260906004516 | 64 | 91 | 0.0 | 1.0 | 0.00 | 0.00 | 0.00 | 66 | 1025.3 |
| 20260906004002 | 63 | 89 | 0.0 | 0.0 | 0.00 | 0.00 | 0.00 | 72 | 1025.4 |
| 20260906003503 | 63 | 89 | 0.0 | 1.0 | 0.00 | 0.00 | 0.00 | 73 | 1025.5 |
| 20260906003003 | 63 | 89 | 0.0 | 1.0 | 0.00 | 0.00 | 0.00 | 75 | 1025.5 |
| 20260906002502 | 63 | 89 | 0.0 | 1.0 | 0.00 | 0.00 | 0.00 | 75 | 1025.6 |
| 20260906002005 | 63 | 89 | 0.0 | 0.0 | 0.00 | 0.00 | 0.00 | 75 | 1025.6 |
| 20260906001504 | 63 | 89 | 0.0 | 0.0 | 0.00 | 0.00 | 0.00 | 75 | 1025.6 |
| 20260906001003 | 63 | 89 | 0.0 | 0.0 | 0.00 | 0.00 | 0.00 | 75 | 1025.6 |
| 20260906000504 | 64 | 89 | 0.0 | 1.0 | 0.00 | 0.00 | 0.00 | 74 | 1025.7 |
| 20260906000007 | 64 | 89 | 0.0 | 1.0 | 0.00 | 0.00 | 0.00 | 73 | 1025.7 |
| 20260905235507 | 64 | 89 | 0.0 | 1.0 | 0.00 | 0.00 | 0.00 | 73 | 1025.6 |
| 20260905235011 | 65 | 89 | 0.0 | 0.0 | 0.00 | 0.00 | 0.00 | 71 | 1025.6 |
| 20260905234510 | 65 | 89 | 0.0 | 1.0 | 0.00 | 0.00 | 0.00 | 71 | 1025.6 |
| 20260905234010 | 65 | 89 | 0.0 | 1.0 | 0.00 | 0.00 | 0.00 | 70 | 1025.6 |
| 20260905233511 | 65 | 92 | 0.0 | 0.0 | 0.00 | 0.00 | 0.00 | 69 | 1025.6 |
| 20260905233018 | 66 | 93 | 0.0 | 0.0 | 0.00 | 0.00 | 0.00 | 69 | 1025.6 |
| 20260905232510 | 66 | 92 | 0.0 | 0.0 | 0.00 | 0.00 | 0.00 | 68 | 1025.6 |
| 20260905232003 | 67 | 92 | 0.0 | 0.0 | 0.00 | 0.00 | 0.00 | 67 | 1025.6 |
| 20260905231504 | 67 | 92 | 0.0 | 1.0 | 0.00 | 0.00 | 0.00 | 66 | 1025.6 |
| 20260905231004 | 68 | 92 | 0.0 | 1.0 | 0.00 | 0.00 | 0.00 | 65 | 1025.6 |
| 20260905230503 | 68 | 123 | 0.0 | 1.0 | 0.00 | 0.00 | 0.00 | 65 | 1025.6 |
| 20260905230004 | 68 | 90 | 0.0 | 1.0 | 0.00 | 0.00 | 0.00 | 65 | 1025.6 |
| 20260905225504 | 68 | 125 | 0.0 | 1.0 | 0.00 | 0.00 | 0.00 | 64 | 1025.6 |
| 20260905225004 | 68 | 126 | 0.0 | 1.0 | 0.00 | 0.00 | 0.00 | 64 | 1025.6 |
| 20260905224508 | 68 | 126 | 0.0 | 0.0 | 0.00 | 0.00 | 0.00 | 64 | 1025.6 |
| 20260905224009 | 68 | 126 | 0.0 | 1.0 | 0.00 | 0.00 | 0.00 | 63 | 1025.6 |
| 20260905223506 | 69 | 126 | 0.0 | 1.0 | 0.00 | 0.00 | 0.00 | 63 | 1025.6 |
| 20260905223019 | 69 | 126 | 0.0 | 1.0 | 0.00 | 0.00 | 0.00 | 63 | 1025.7 |
| 20260905222510 | 69 | 95 | 0.0 | 1.0 | 0.00 | 0.00 | 0.00 | 62 | 1025.8 |
| 20260905222016 | 70 | 84 | 0.0 | 1.0 | 0.00 | 0.00 | 0.00 | 62 | 1025.7 |
| 20260905221518 | 70 | 85 | 0.0 | 2.0 | 0.00 | 0.00 | 0.00 | 61 | 1025.7 |
| 20260905221012 | 70 | 101 | 0.0 | 4.0 | 0.00 | 0.00 | 0.00 | 61 | 1025.7 |
| 20260905220515 | 70 | 114 | 2.0 | 4.0 | 0.00 | 0.00 | 0.00 | 61 | 1025.6 |
| 20260905220005 | 70 | 82 | 1.0 | 4.0 | 0.00 | 0.00 | 0.00 | 61 | 1025.6 |
| 20260905215507 | 70 | 94 | 1.0 | 4.0 | 0.00 | 0.00 | 0.00 | 61 | 1025.7 |
| 20260905215002 | 70 | 96 | 1.0 | 3.0 | 0.00 | 0.00 | 0.00 | 61 | 1025.6 |
| 20260905214505 | 71 | 147 | 0.0 | 2.0 | 0.00 | 0.00 | 0.00 | 60 | 1025.6 |
| 20260905214005 | 71 | 95 | 0.0 | 4.0 | 0.00 | 0.00 | 0.00 | 60 | 1025.7 |
| 20260905213505 | 71 | 117 | 2.0 | 4.0 | 0.00 | 0.00 | 0.00 | 60 | 1025.7 |
| 20260905213009 | 71 | 85 | 0.0 | 2.0 | 0.00 | 0.00 | 0.00 | 60 | 1025.8 |
| 20260905212508 | 71 | 87 | 0.0 | 2.0 | 0.00 | 0.00 | 0.00 | 60 | 1025.8 |
| 20260905212008 | 71 | 96 | 0.0 | 3.0 | 0.00 | 0.00 | 0.00 | 59 | 1025.8 |
| 20260905211534 | 71 | 101 | 0.0 | 3.0 | 0.00 | 0.00 | 0.00 | 59 | 1025.8 |
| 20260905211010 | 71 | 90 | 0.0 | 3.0 | 0.00 | 0.00 | 0.00 | 59 | 1025.9 |
| 20260905210512 | 71 | 87 | 1.0 | 2.0 | 0.00 | 0.00 | 0.00 | 60 | 1025.9 |
| 20260905210022 | 71 | 89 | 1.0 | 2.0 | 0.00 | 0.00 | 0.00 | 60 | 1025.9 |
| 20260905205513 | 71 | 79 | 0.0 | 2.0 | 0.00 | 0.00 | 0.00 | 59 | 1026.0 |
| 20260905205012 | 71 | 70 | 0.0 | 1.0 | 0.00 | 0.00 | 0.00 | 58 | 1026.1 |
| 20260905204504 | 72 | 70 | 0.0 | 1.0 | 0.00 | 0.00 | 0.00 | 58 | 1026.0 |
| 20260905204002 | 71 | 94 | 0.0 | 2.0 | 0.00 | 0.00 | 0.00 | 58 | 1026.1 |
| 20260905203505 | 71 | 124 | 0.0 | 2.0 | 0.00 | 0.00 | 0.00 | 59 | 1026.1 |
| 20260905203007 | 71 | 107 | 0.0 | 2.0 | 0.00 | 0.00 | 0.00 | 59 | 1026.1 |
| 20260905202509 | 71 | 81 | 0.0 | 2.0 | 0.00 | 0.00 | 0.00 | 59 | 1026.2 |
| 20260905202006 | 72 | 89 | 0.0 | 1.0 | 0.00 | 0.00 | 0.00 | 59 | 1026.3 |
| 20260905201517 | 72 | 276 | 0.0 | 1.0 | 0.00 | 0.00 | 0.00 | 58 | 1026.2 |
| 20260905201008 | 71 | 276 | 0.0 | 1.0 | 0.00 | 0.00 | 0.00 | 59 | 1026.2 |
| 20260905200508 | 71 | 276 | 0.0 | 1.0 | 0.00 | 0.00 | 0.00 | 59 | 1026.3 |
| 20260905200017 | 71 | 276 | 0.0 | 0.0 | 0.00 | 0.00 | 0.00 | 59 | 1026.3 |
| 20260905195512 | 71 | 276 | 0.0 | 0.0 | 0.00 | 0.00 | 0.00 | 58 | 1026.3 |
| 20260905195016 | 72 | 276 | 0.0 | 0.0 | 0.00 | 0.00 | 0.00 | 58 | 1026.3 |
| 20260905194524 | 72 | 276 | 0.0 | 0.0 | 0.00 | 0.00 | 0.00 | 58 | 1026.3 |
| 20260905194014 | 72 | 276 | 0.0 | 0.0 | 0.00 | 0.00 | 0.00 | 58 | 1026.4 |
| 20260905193514 | 72 | 276 | 0.0 | 1.0 | 0.00 | 0.00 | 0.00 | 58 | 1026.4 |
| 20260905193032 | 73 | 276 | 0.0 | 1.0 | 0.00 | 0.00 | 0.00 | 56 | 1026.3 |
| 20260905192507 | 74 | 265 | 0.0 | 1.0 | 0.00 | 0.00 | 0.00 | 56 | 1026.2 |
| 20260905192003 | 74 | 288 | 0.0 | 1.0 | 0.00 | 0.00 | 0.00 | 55 | 1026.2 |
| 20260905191520 | 74 | 288 | 0.0 | 2.0 | 0.00 | 0.00 | 0.00 | 55 | 1026.2 |
| 20260905191003 | 74 | 283 | 1.0 | 2.0 | 0.00 | 0.00 | 0.00 | 54 | 1026.2 |
| 20260905190507 | 75 | 291 | 1.0 | 2.0 | 0.00 | 0.00 | 0.00 | 54 | 1026.0 |
| 20260905190017 | 74 | 276 | 0.0 | 1.0 | 0.00 | 0.00 | 0.00 | 54 | 1025.9 |
| 20260905185509 | 75 | 273 | 0.0 | 1.0 | 0.00 | 0.00 | 0.00 | 54 | 1025.9 |
| 20260905185011 | 75 | 277 | 0.0 | 1.0 | 0.00 | 0.00 | 0.00 | 53 | 1025.8 |
| 20260905184527 | 75 | 269 | 0.0 | 1.0 | 0.00 | 0.00 | 0.00 | 53 | 1025.8 |
| 20260905184013 | 75 | 268 | 0.0 | 1.0 | 0.00 | 0.00 | 0.00 | 53 | 1025.7 |
| 20260905183515 | 75 | 290 | 0.0 | 1.0 | 0.00 | 0.00 | 0.00 | 53 | 1025.6 |
| 20260905183036 | 75 | 22 | 0.0 | 0.0 | 0.00 | 0.00 | 0.00 | 52 | 1025.7 |
| 20260905182515 | 76 | 26 | 0.0 | 0.0 | 0.00 | 0.00 | 0.00 | 51 | 1025.6 |
| 20260905182015 | 76 | 26 | 0.0 | 0.0 | 0.00 | 0.00 | 0.00 | 50 | 1025.6 |
| 20260905181529 | 77 | 26 | 0.0 | 0.0 | 0.00 | 0.00 | 0.00 | 50 | 1025.6 |
| 20260905181014 | 78 | 26 | 0.0 | 0.0 | 0.00 | 0.00 | 0.00 | 49 | 1025.6 |
| 20260905180503 | 78 | 26 | 0.0 | 0.0 | 0.00 | 0.00 | 0.00 | 48 | 1025.6 |
| 20260905180010 | 79 | 26 | 0.0 | 0.0 | 0.00 | 0.00 | 0.00 | 47 | 1025.7 |
| 20260905175507 | 81 | 26 | 0.0 | 0.0 | 0.00 | 0.00 | 0.00 | 45 | 1025.7 |
| 20260905175010 | 81 | 26 | 0.0 | 0.0 | 0.00 | 0.00 | 0.00 | 44 | 1025.8 |
| 20260905174515 | 82 | 26 | 0.0 | 0.0 | 0.00 | 0.00 | 0.00 | 43 | 1025.8 |
| 20260905174011 | 83 | 26 | 0.0 | 0.0 | 0.00 | 0.00 | 0.00 | 43 | 1025.8 |
| 20260905173512 | 83 | 26 | 0.0 | 0.0 | 0.00 | 0.00 | 0.00 | 43 | 1025.8 |
| 20260905173022 | 83 | 26 | 0.0 | 0.0 | 0.00 | 0.00 | 0.00 | 43 | 1025.8 |
| 20260905172513 | 83 | 26 | 0.0 | 0.0 | 0.00 | 0.00 | 0.00 | 44 | 1025.8 |
| 20260905172017 | 83 | 26 | 0.0 | 0.0 | 0.00 | 0.00 | 0.00 | 43 | 1025.8 |
| 20260905171530 | 83 | 26 | 0.0 | 0.0 | 0.00 | 0.00 | 0.00 | 43 | 1025.9 |
| 20260905171018 | 83 | 26 | 0.0 | 1.0 | 0.00 | 0.00 | 0.00 | 44 | 1025.9 |
| 20260905170516 | 82 | 26 | 0.0 | 1.0 | 0.00 | 0.00 | 0.00 | 44 | 1025.9 |
| 20260905170030 | 83 | 34 | 0.0 | 1.0 | 0.00 | 0.00 | 0.00 | 43 | 1025.9 |
| 20260905165515 | 83 | 34 | 0.0 | 1.0 | 0.00 | 0.00 | 0.00 | 43 | 1025.8 |
| 20260905165018 | 84 | 39 | 0.0 | 0.0 | 0.00 | 0.00 | 0.00 | 43 | 1025.9 |
| 20260905164514 | 83 | 39 | 0.0 | 0.0 | 0.00 | 0.00 | 0.00 | 44 | 1025.9 |
| 20260905164010 | 83 | 39 | 0.0 | 1.0 | 0.00 | 0.00 | 0.00 | 44 | 1025.9 |
| 20260905163509 | 82 | 39 | 0.0 | 1.0 | 0.00 | 0.00 | 0.00 | 44 | 1025.9 |
| 20260905163022 | 82 | 335 | 0.0 | 2.0 | 0.00 | 0.00 | 0.00 | 46 | 1025.9 |
| 20260905162512 | 82 | 335 | 0.0 | 2.0 | 0.00 | 0.00 | 0.00 | 45 | 1025.9 |
| 20260905162013 | 83 | 19 | 0.0 | 1.0 | 0.00 | 0.00 | 0.00 | 44 | 1025.9 |
| 20260905161527 | 83 | 348 | 0.0 | 1.0 | 0.00 | 0.00 | 0.00 | 44 | 1025.9 |
| 20260905161005 | 83 | 63 | 0.0 | 1.0 | 0.00 | 0.00 | 0.00 | 46 | 1026.0 |
| 20260905160506 | 82 | 70 | 0.0 | 1.0 | 0.00 | 0.00 | 0.00 | 46 | 1026.0 |
| 20260905160006 | 81 | 71 | 0.0 | 2.0 | 0.00 | 0.00 | 0.00 | 45 | 1026.0 |
| 20260905155502 | 81 | 346 | 0.0 | 2.0 | 0.00 | 0.00 | 0.00 | 46 | 1026.0 |
| 20260905155004 | 81 | 127 | 0.0 | 3.0 | 0.00 | 0.00 | 0.00 | 46 | 1026.0 |
| 20260905154508 | 82 | 94 | 0.0 | 3.0 | 0.00 | 0.00 | 0.00 | 45 | 1026.0 |
| 20260905154009 | 83 | 319 | 0.0 | 1.0 | 0.00 | 0.00 | 0.00 | 44 | 1026.0 |
| 20260905153505 | 82 | 319 | 0.0 | 2.0 | 0.00 | 0.00 | 0.00 | 45 | 1026.1 |
| 20260905153018 | 82 | 80 | 0.0 | 2.0 | 0.00 | 0.00 | 0.00 | 44 | 1026.1 |
| 20260905152507 | 82 | 302 | 0.0 | 2.0 | 0.00 | 0.00 | 0.00 | 46 | 1026.2 |
| 20260905152011 | 82 | 51 | 0.0 | 3.0 | 0.00 | 0.00 | 0.00 | 45 | 1026.2 |
| 20260905151528 | 81 | 293 | 0.0 | 3.0 | 0.00 | 0.00 | 0.00 | 44 | 1026.2 |
| 20260905151003 | 81 | 35 | 0.0 | 3.0 | 0.00 | 0.00 | 0.00 | 45 | 1026.2 |
| 20260905150507 | 81 | 345 | 1.0 | 5.0 | 0.00 | 0.00 | 0.00 | 44 | 1026.2 |
| 20260905150014 | 81 | 92 | 1.0 | 5.0 | 0.00 | 0.00 | 0.00 | 47 | 1026.2 |
| 20260905145504 | 81 | 132 | 1.0 | 3.0 | 0.00 | 0.00 | 0.00 | 46 | 1026.4 |
| 20260905145004 | 81 | 315 | 0.0 | 2.0 | 0.00 | 0.00 | 0.00 | 44 | 1026.4 |
| 20260905144511 | 82 | 106 | 0.0 | 2.0 | 0.00 | 0.00 | 0.00 | 43 | 1026.4 |
| 20260905144003 | 81 | 33 | 0.0 | 2.0 | 0.00 | 0.00 | 0.00 | 46 | 1026.5 |
| 20260905143503 | 80 | 95 | 0.0 | 2.0 | 0.00 | 0.00 | 0.00 | 46 | 1026.5 |
| 20260905143011 | 80 | 308 | 0.0 | 3.0 | 0.00 | 0.00 | 0.00 | 45 | 1026.6 |
| 20260905142507 | 81 | 349 | 1.0 | 3.0 | 0.00 | 0.00 | 0.00 | 46 | 1026.6 |
| 20260905142008 | 81 | 76 | 0.0 | 4.0 | 0.00 | 0.00 | 0.00 | 46 | 1026.6 |
| 20260905141514 | 80 | 58 | 0.0 | 4.0 | 0.00 | 0.00 | 0.00 | 46 | 1026.7 |
| 20260905141010 | 80 | 105 | 0.0 | 2.0 | 0.00 | 0.00 | 0.00 | 47 | 1026.7 |
| 20260905140510 | 80 | 81 | 0.0 | 3.0 | 0.00 | 0.00 | 0.00 | 48 | 1026.7 |
| 20260905140021 | 80 | 76 | 0.0 | 3.0 | 0.00 | 0.00 | 0.00 | 47 | 1026.8 |
| 20260905135513 | 80 | 77 | 0.0 | 2.0 | 0.00 | 0.00 | 0.00 | 46 | 1026.8 |
| 20260905135003 | 80 | 102 | 0.0 | 5.0 | 0.00 | 0.00 | 0.00 | 46 | 1026.9 |
| 20260905134504 | 80 | 37 | 0.0 | 5.0 | 0.00 | 0.00 | 0.00 | 49 | 1026.9 |
| 20260905134004 | 80 | 293 | 2.0 | 4.0 | 0.00 | 0.00 | 0.00 | 49 | 1026.9 |
| 20260905133503 | 79 | 304 | 1.0 | 4.0 | 0.00 | 0.00 | 0.00 | 47 | 1027.1 |
| 20260905133008 | 79 | 286 | 2.0 | 5.0 | 0.00 | 0.00 | 0.00 | 48 | 1027.2 |
| 20260905132504 | 79 | 351 | 2.0 | 5.0 | 0.00 | 0.00 | 0.00 | 48 | 1027.2 |
| 20260905132007 | 79 | 293 | 0.0 | 3.0 | 0.00 | 0.00 | 0.00 | 46 | 1027.2 |
| 20260905131515 | 79 | 342 | 0.0 | 4.0 | 0.00 | 0.00 | 0.00 | 47 | 1027.2 |
| 20260905131009 | 79 | 319 | 1.0 | 4.0 | 0.00 | 0.00 | 0.00 | 46 | 1027.2 |
| 20260905130508 | 79 | 309 | 2.0 | 6.0 | 0.00 | 0.00 | 0.00 | 46 | 1027.3 |
| 20260905130016 | 79 | 314 | 0.0 | 6.0 | 0.00 | 0.00 | 0.00 | 48 | 1027.4 |
| 20260905125512 | 78 | 309 | 1.0 | 7.0 | 0.00 | 0.00 | 0.00 | 47 | 1027.4 |
| 20260905125011 | 78 | 286 | 3.0 | 7.0 | 0.00 | 0.00 | 0.00 | 47 | 1027.5 |
| 20260905124527 | 78 | 299 | 4.0 | 7.0 | 0.00 | 0.00 | 0.00 | 47 | 1027.5 |
| 20260905124013 | 78 | 288 | 3.0 | 6.0 | 0.00 | 0.00 | 0.00 | 47 | 1027.4 |
| 20260905123515 | 79 | 302 | 3.0 | 6.0 | 0.00 | 0.00 | 0.00 | 45 | 1027.4 |
| 20260905123005 | 78 | 266 | 1.0 | 4.0 | 0.00 | 0.00 | 0.00 | 46 | 1027.4 |
| 20260905122503 | 79 | 289 | 1.0 | 5.0 | 0.00 | 0.00 | 0.00 | 50 | 1027.4 |
| 20260905122004 | 78 | 79 | 0.0 | 5.0 | 0.00 | 0.00 | 0.00 | 49 | 1027.3 |
| 20260905121509 | 78 | 296 | 3.0 | 5.0 | 0.00 | 0.00 | 0.00 | 50 | 1027.4 |
| 20260905121004 | 77 | 283 | 1.0 | 6.0 | 0.00 | 0.00 | 0.00 | 48 | 1027.3 |
| 20260905120508 | 77 | 283 | 3.0 | 6.0 | 0.00 | 0.00 | 0.00 | 51 | 1027.3 |
| 20260905120012 | 77 | 315 | 2.0 | 6.0 | 0.00 | 0.00 | 0.00 | 49 | 1027.3 |
| 20260905115510 | 77 | 323 | 3.0 | 6.0 | 0.00 | 0.00 | 0.00 | 50 | 1027.3 |
| 20260905115011 | 77 | 276 | 1.0 | 7.0 | 0.00 | 0.00 | 0.00 | 48 | 1027.4 |
| 20260905114518 | 78 | 288 | 2.0 | 7.0 | 0.00 | 0.00 | 0.00 | 49 | 1027.4 |
| 20260905114011 | 79 | 285 | 3.0 | 5.0 | 0.00 | 0.00 | 0.00 | 47 | 1027.4 |
| 20260905113512 | 80 | 221 | 1.0 | 2.0 | 0.00 | 0.00 | 0.00 | 48 | 1027.3 |
| 20260905113023 | 78 | 84 | 0.0 | 2.0 | 0.00 | 0.00 | 0.00 | 48 | 1027.4 |
| 20260905112514 | 77 | 259 | 1.0 | 4.0 | 0.00 | 0.00 | 0.00 | 49 | 1027.3 |
| 20260905112015 | 78 | 318 | 1.0 | 4.0 | 0.00 | 0.00 | 0.00 | 46 | 1027.4 |
| 20260905111534 | 78 | 274 | 0.0 | 2.0 | 0.00 | 0.00 | 0.00 | 48 | 1027.3 |
| 20260905111007 | 78 | 69 | 1.0 | 3.0 | 0.00 | 0.00 | 0.00 | 50 | 1027.3 |
| 20260905110506 | 77 | 92 | 0.0 | 3.0 | 0.00 | 0.00 | 0.00 | 49 | 1027.4 |
| 20260905110009 | 76 | 32 | 0.0 | 3.0 | 0.00 | 0.00 | 0.00 | 50 | 1027.4 |
| 20260905105508 | 76 | 70 | 1.0 | 3.0 | 0.00 | 0.00 | 0.00 | 49 | 1027.4 |
| 20260905105008 | 76 | 16 | 0.0 | 3.0 | 0.00 | 0.00 | 0.00 | 50 | 1027.5 |
| 20260905104513 | 76 | 63 | 1.0 | 3.0 | 0.00 | 0.00 | 0.00 | 48 | 1027.4 |
| 20260905104016 | 76 | 75 | 1.0 | 4.0 | 0.00 | 0.00 | 0.00 | 49 | 1027.5 |
| 20260905103511 | 76 | 74 | 1.0 | 4.0 | 0.00 | 0.00 | 0.00 | 48 | 1027.5 |
| 20260905103020 | 76 | 87 | 1.0 | 3.0 | 0.00 | 0.00 | 0.00 | 49 | 1027.5 |
| 20260905102514 | 76 | 64 | 0.0 | 3.0 | 0.00 | 0.00 | 0.00 | 48 | 1027.5 |
| 20260905102014 | 76 | 90 | 1.0 | 3.0 | 0.00 | 0.00 | 0.00 | 48 | 1027.4 |
| 20260905101527 | 76 | 91 | 0.0 | 3.0 | 0.00 | 0.00 | 0.00 | 48 | 1027.5 |
| 20260905101016 | 76 | 65 | 1.0 | 3.0 | 0.00 | 0.00 | 0.00 | 48 | 1027.4 |
| 20260905100516 | 76 | 34 | 1.0 | 3.0 | 0.00 | 0.00 | 0.00 | 46 | 1027.4 |
| 20260905100035 | 76 | 28 | 1.0 | 3.0 | 0.00 | 0.00 | 0.00 | 45 | 1027.4 |
| 20260905095504 | 75 | 81 | 0.0 | 3.0 | 0.00 | 0.00 | 0.00 | 46 | 1027.4 |
| 20260905095006 | 74 | 310 | 0.0 | 3.0 | 0.00 | 0.00 | 0.00 | 45 | 1027.4 |
| 20260905094511 | 74 | 281 | 1.0 | 4.0 | 0.00 | 0.00 | 0.00 | 43 | 1027.4 |
| 20260905094009 | 75 | 14 | 1.0 | 4.0 | 0.00 | 0.00 | 0.00 | 44 | 1027.3 |
| 20260905093510 | 75 | 216 | 0.0 | 2.0 | 0.00 | 0.00 | 0.00 | 47 | 1027.3 |
| 20260905093018 | 74 | 72 | 0.0 | 2.0 | 0.00 | 0.00 | 0.00 | 44 | 1027.2 |
| 20260905092512 | 74 | 107 | 1.0 | 3.0 | 0.00 | 0.00 | 0.00 | 49 | 1027.2 |
| 20260905092014 | 74 | 93 | 1.0 | 3.0 | 0.00 | 0.00 | 0.00 | 50 | 1027.2 |
| 20260905091530 | 73 | 68 | 0.0 | 2.0 | 0.00 | 0.00 | 0.00 | 52 | 1027.3 |
| 20260905091013 | 73 | 350 | 0.0 | 2.0 | 0.00 | 0.00 | 0.00 | 52 | 1027.3 |
| 20260905090515 | 72 | 62 | 0.0 | 2.0 | 0.00 | 0.00 | 0.00 | 55 | 1027.3 |
| 20260905090029 | 72 | 77 | 0.0 | 2.0 | 0.00 | 0.00 | 0.00 | 60 | 1027.2 |
| 20260905085516 | 72 | 99 | 1.0 | 2.0 | 0.00 | 0.00 | 0.00 | 62 | 1027.1 |
| 20260905085016 | 72 | 72 | 0.0 | 2.0 | 0.00 | 0.00 | 0.00 | 58 | 1027.1 |
| 20260905084528 | 73 | 75 | 0.0 | 1.0 | 0.00 | 0.00 | 0.00 | 60 | 1027.0 |
| 20260905084017 | 74 | 72 | 0.0 | 1.0 | 0.00 | 0.00 | 0.00 | 60 | 1027.0 |
| 20260905083506 | 74 | 73 | 0.0 | 1.0 | 0.00 | 0.00 | 0.00 | 55 | 1026.9 |
| 20260905083014 | 74 | 68 | 0.0 | 2.0 | 0.00 | 0.00 | 0.00 | 55 | 1026.9 |
| 20260905082511 | 74 | 16 | 0.0 | 3.0 | 0.00 | 0.00 | 0.00 | 52 | 1026.9 |
| 20260905082009 | 73 | 103 | 1.0 | 3.0 | 0.00 | 0.00 | 0.00 | 51 | 1026.8 |
| 20260905081519 | 72 | 101 | 1.0 | 2.0 | 0.00 | 0.00 | 0.00 | 52 | 1026.7 |
| 20260905081011 | 72 | 89 | 0.0 | 2.0 | 0.00 | 0.00 | 0.00 | 61 | 1026.5 |
| 20260905080513 | 73 | 91 | 0.0 | 2.0 | 0.00 | 0.00 | 0.00 | 61 | 1026.6 |
| 20260905080027 | 73 | 101 | 1.0 | 2.0 | 0.00 | 0.00 | 0.00 | 55 | 1026.5 |
| 20260905075515 | 73 | 102 | 0.0 | 1.0 | 0.00 | 0.00 | 0.00 | 56 | 1026.4 |
| 20260905075015 | 73 | 117 | 0.0 | 1.0 | 0.00 | 0.00 | 0.00 | 54 | 1026.4 |
| 20260905074531 | 73 | 93 | 1.0 | 1.0 | 0.00 | 0.00 | 0.00 | 53 | 1026.4 |
| 20260905074017 | 73 | 113 | 0.0 | 2.0 | 0.00 | 0.00 | 0.00 | 50 | 1026.4 |
| 20260905073517 | 73 | 116 | 0.0 | 2.0 | 0.00 | 0.00 | 0.00 | 52 | 1026.3 |
| 20260905073032 | 72 | 98 | 0.0 | 2.0 | 0.00 | 0.00 | 0.00 | 52 | 1026.3 |
| 20260905072518 | 72 | 98 | 0.0 | 1.0 | 0.00 | 0.00 | 0.00 | 53 | 1026.2 |
| 20260905072023 | 71 | 86 | 0.0 | 2.0 | 0.00 | 0.00 | 0.00 | 54 | 1026.2 |
| 20260905071516 | 70 | 82 | 0.0 | 2.0 | 0.00 | 0.00 | 0.00 | 55 | 1026.2 |
| 20260905071012 | 70 | 100 | 0.0 | 2.0 | 0.00 | 0.00 | 0.00 | 54 | 1026.2 |
| 20260905070512 | 70 | 88 | 0.0 | 2.0 | 0.00 | 0.00 | 0.00 | 55 | 1026.1 |
| 20260905070023 | 69 | 94 | 0.0 | 2.0 | 0.00 | 0.00 | 0.00 | 54 | 1026.1 |
| 20260905065514 | 69 | 93 | 0.0 | 2.0 | 0.00 | 0.00 | 0.00 | 56 | 1026.0 |
| 20260905065013 | 68 | 99 | 0.0 | 2.0 | 0.00 | 0.00 | 0.00 | 57 | 1026.0 |
| 20260905064526 | 68 | 108 | 0.0 | 2.0 | 0.00 | 0.00 | 0.00 | 56 | 1025.9 |
| 20260905064015 | 67 | 152 | 0.0 | 2.0 | 0.00 | 0.00 | 0.00 | 57 | 1025.9 |
| 20260905063516 | 67 | 111 | 0.0 | 2.0 | 0.00 | 0.00 | 0.00 | 56 | 1025.8 |
| 20260905063030 | 67 | 91 | 0.0 | 2.0 | 0.00 | 0.00 | 0.00 | 56 | 1025.8 |
| 20260905062516 | 69 | 98 | 0.0 | 1.0 | 0.00 | 0.00 | 0.00 | 56 | 1025.8 |
| 20260905062018 | 68 | 97 | 0.0 | 1.0 | 0.00 | 0.00 | 0.00 | 55 | 1025.9 |
| 20260905061538 | 68 | 96 | 0.0 | 1.0 | 0.00 | 0.00 | 0.00 | 57 | 1025.9 |
| 20260905061015 | 68 | 96 | 0.0 | 1.0 | 0.00 | 0.00 | 0.00 | 56 | 1025.8 |
| 20260905060516 | 67 | 97 | 0.0 | 1.0 | 0.00 | 0.00 | 0.00 | 55 | 1025.7 |
| 20260905060033 | 67 | 105 | 0.0 | 2.0 | 0.00 | 0.00 | 0.00 | 56 | 1025.7 |
| 20260905055513 | 66 | 133 | 0.0 | 2.0 | 0.00 | 0.00 | 0.00 | 57 | 1025.5 |
| 20260905055013 | 66 | 94 | 0.0 | 1.0 | 0.00 | 0.00 | 0.00 | 58 | 1025.5 |
| 20260905054530 | 65 | 76 | 0.0 | 1.0 | 0.00 | 0.00 | 0.00 | 57 | 1025.4 |
| 20260905054015 | 65 | 141 | 0.0 | 1.0 | 0.00 | 0.00 | 0.00 | 58 | 1025.3 |
| 20260905053518 | 64 | 91 | 0.0 | 1.0 | 0.00 | 0.00 | 0.00 | 59 | 1025.3 |
| 20260905053028 | 64 | 129 | 0.0 | 1.0 | 0.00 | 0.00 | 0.00 | 59 | 1025.2 |
| 20260905052515 | 64 | 111 | 0.0 | 1.0 | 0.00 | 0.00 | 0.00 | 59 | 1025.2 |